Regional Weather Roundup
Issued by NWS

Home | Current Version | Previous Version | Text Only | Print | Product List | Glossary On
Versions: 1 2 3 4 5 6 7 8 9 10 11 12 13 14 15 16 17 18 19 20 21 22 23 24 25 26 27 28 29 30 31 32 33 34 35 36 37 38 39 40 41 42 43 44 45 46 47 48 49 50
000
ASUS43 KMKX 240221
RWRWI

WISCONSIN REGIONAL WEATHER ROUNDUP
NATIONAL WEATHER SERVICE MILWAUKEE/SULLIVAN WI
900 PM CDT MON OCT 23 2017

NOTE: "FAIR" INDICATES FEW OR NO CLOUDS BELOW 12,000 FEET WITH NO
SIGNIFICANT WEATHER AND/OR OBSTRUCTIONS TO VISIBILITY.

WIZ001-002-006>008-014>016-023>028-240300-
NORTHWEST WISCONSIN

CITY           SKY/WX    TMP DP  RH WIND       PRES   REMARKS
SUPERIOR ARPT  CLOUDY    45  37  75 NW20G28   29.81S
ASHLAND        CLOUDY    49  40  71 NW20G25   29.74R
HAYWARD        CLOUDY    48  40  73 NW10G25   29.76R
SIREN          CLOUDY    46  37  69 N10G17    29.82R
CUMBERLAND     CLOUDY    43  37  81 NW23G30   29.78R
RICE LAKE      CLOUDY    46  41  84 NW13G21   29.79R
CHETEK         CLOUDY    46  43  88 NW12G25   29.76R
LADYSMITH      DRIZZLE   48  43  82 NW13      29.73S
EAU CLAIRE     NOT AVBL
MENOMONIE      CLOUDY    49  39  68 NW17G23   29.78R
NEW RICHMOND   CLOUDY    46  34  63 NW18G29   29.82S
OSCEOLA        CLOUDY    45  35  68 NW12G20   29.86S
$$

WIZ003>005-009-010-017-018-240300-
NORTH CENTRAL WISCONSIN

CITY           SKY/WX    TMP DP  RH WIND       PRES   REMARKS
MANITOWISH WTR DRIZZLE   48  48 100 NW13      29.66S
ARBOR VITAE    DRIZZLE   52  49  90 NW9       29.65S
WOODRUFF       DRIZZLE   52  49  90 NW9       29.65S
RHINELANDER    LGT RAIN  47  47 100 CALM      29.64F
EAGLE RIVER    LGT RAIN  47  46  97 N5        29.63F
LAND O LAKES   LGT RAIN  50  42  74 N5        29.66S
PHILLIPS       LGT RAIN  46  46  99 NW6       29.69S
TOMAHAWK       DRIZZLE   47  45  91 NW8G16    29.66R
MEDFORD        DRIZZLE   47  45  93 NW14G21   29.66S
MERRILL        LGT RAIN  49  46  91 NW8       29.64F
$$

WIZ029-030-035-036-043>047-240300-
CENTRAL WISCONSIN

CITY           SKY/WX    TMP DP  RH WIND       PRES   REMARKS
WAUSAU         LGT RAIN  48  46  93 N3        29.61F
MOSINEE        DRIZZLE   48  46  93 NW7       29.64F
MARSHFIELD     RAIN      49  45  86 NW15      29.65S FOG
STEVENS POINT  LGT RAIN  47  46  98 W5        29.64F
WAUPACA        LGT RAIN  51  48  92 W3        29.62F
WAUTOMA        LGT RAIN N/A N/A N/A NW10      29.63F
WISC RAPIDS    LGT RAIN  50  47  89 NW13      29.65F
CAMP DOUGLAS   DRIZZLE   50  43  76 NW12G22   29.67S
$$

WIZ011>013-019>022-031-037>040-048>050-240300-
NORTHEAST WISCONSIN

CITY           SKY/WX    TMP DP  RH WIND       PRES   REMARKS
ANTIGO         DRIZZLE   47  43  87 NW7       29.62F
SHAWANO        CLOUDY    49  47  90 CALM      29.61F
OCONTO         CLOUDY    47  46  96 CALM      29.59F
STURGEON BAY   CLOUDY    48  46  93 CALM      29.59F
GREEN BAY      CLOUDY    49  48  97 W6        29.60F
MANITOWOC      CLOUDY    49  46  90 NW3       29.59
APPLETON       MOCLDY    48  43  81 W5        29.59F
CLINTONVILLE   CLOUDY    48  45  87 W3        29.61F
OSHKOSH        CLOUDY    50  45  83 CALM      29.60F
$$

WIZ032>034-041-042-053>061-240300-
SOUTHWEST WISCONSIN

CITY           SKY/WX    TMP DP  RH WIND       PRES   REMARKS
LA CROSSE      MOCLDY    53  43  68 NW16      29.73R
SPARTA         CLOUDY    50  42  73 NW14G28   29.71R
VIROQUA        PTCLDY    47  42  83 NW10G18   29.71S
BOSCOBEL       MOCLDY    51  40  65 W10       29.72S
PRAIRIE DU CHI CLOUDY    50  40  67 NW12G24   29.74S
PLATTEVILLE    CLOUDY    49  43  81 W10       29.72R
$$

WIZ056-057-062-063-064-067-068-240300-
SOUTH CENTRAL WISCONSIN

CITY           SKY/WX    TMP DP  RH WIND       PRES   REMARKS
REEDSBURG      DRIZZLE   49  47  91 W6        29.67S
BARABOO/DELLS  LGT RAIN  48  45  89 W6        29.65F
LONE ROCK      CLOUDY    52  44  74 W14       29.69S
MINERAL POINT  CLOUDY    50  45  81 NW10G18   29.69S
MADISON        LGT RAIN  49  45  86 W8        29.65S
MIDDLETON      CLOUDY    50  47  89 W10       29.66F
WATERTOWN      DRIZZLE   51  49  92 W7        29.62F
MONROE         DRIZZLE   48  46  93 W9        29.67F
JANESVILLE     CLOUDY    52  50  93 NW12      29.65S
$$

WIZ051-052-058>065-066-070>072-240300-
SOUTHEAST WISCONSIN

CITY           SKY/WX    TMP DP  RH WIND       PRES   REMARKS
MILWAUKEE      CLOUDY    52  45  77 CALM      29.61F
WAUKESHA       CLOUDY    48  43  81 W6        29.62F
MILWAUKEE/TIMM CLOUDY    48  43  81 CALM      29.62F
RACINE         CLOUDY    49  47  93 SW3       29.63F
BURLINGTON     CLOUDY    51  47  84 W7        29.63S
KENOSHA        CLOUDY    50  45  83 SW3       29.63S
FOND DU LAC    CLOUDY    49  45  86 CALM      29.60F
SHEBOYGAN      CLOUDY    48  47  96 CALM      29.59F
WEST BEND      CLOUDY    46  45  93 CALM      29.60F
JUNEAU         DRIZZLE   50  46  84 CALM      29.62F
$$

LSZ147-162-240300-
LAKE SUPERIOR

STATION/POSITION TIME  TEMP    WIND        PRES    WAVE
                       AIR SEA DIR/SP/G            HT/PER
                 (UTC) (F)     (DEG/KT/KT) (MB)    (FT/S)
W MID LAKE BUOY  0150   52 51              1004.7F   1/ 4
DEVILS ISLAND    0200   48     320/ 28/ 31 1007.6R
PORT WING        0157          320/ 20/ 25 1009.1R
SAXON HARBOR     0140   53     330/ 22/ 29 1005.8R
$$

LMZ867-665-643>646-240300-
LAKE MICHIGAN

STATION/POSITION TIME  TEMP    WIND        PRES    WAVE
                       AIR SEA DIR/SP/G            HT/PER
                 (UTC) (F)     (DEG/KT/KT) (MB)    (FT/S)
S GREEN BAY BUOY 0200   53 58  360/  6/  8 1002.2
N MID LAKE BUOY  0150   54 57   20/ 10/ 12 1002.0F   1/ 3
NORTHPORT PIER   0140   53     340/  9/ 11 1002.4F
KEWAUNEE LAKESHO 0200   49     340/  2/  4 1001.1
SHEBOYGAN LAKESH 0200   51     270/  5/  5 1002.1F
PORT WASHINGTON  0130   51     290/  2/  3 1003.7F
MILWAUKEE LAKESH 0200   52     280/  3/  4   N/A
S MID LAKE BUOY  0150   55 60  320/ 14/ 16 1002.5F   3/ 5
KENOSHA   LAKESH 0200   51     220/  3/  4 1003.4
$$

TC  - TEMPERATURE IN CELSIUS
VSB - VISIBILITY IN STATUTE MILES
WCI - WIND CHILL INDEX
HX  - HEAT INDEX




USA.gov is the U.S. government's official web portal to all federal, state and local government web resources and services.